Find Starlink 30442

NORAD ID: 57868 Int'l Des: 2023-144 Owner: SPXS Country: US Constellation: starlink operational
LEOCIRCULAR

Live Position

Loading 3D Globe...

About Starlink 30442

Description loading...

Upcoming Passes

Passes for default location (London). Set your location on the main map for personalized predictions.

Altitude History

Loading altitude history...

Two-Line Element Set

1 57868U 23144E 26125.61663507 .00008754 00000-0 32756-3 0 9998
2 57868 43.0042 323.6692 0000793 288.3010 71.7755 15.27547508146301
Epoch: May 5, 2026 • Age: 12 hours

Current Status

Altitude 484.5 km
Velocity 7.63 km/s
Sub-Earth Point 31.82°N, 159.68°W
Launch Date Sep 16, 2023
Age 2.6 years
Type internet

Technical Details

Classification Payload
Mass 730.00 kg
Dry Mass 700.00 kg
Total Mass 730.00 kg
Length 0.30 m
Diameter 4.10 m
Span 29.00 m
Shape Box + pan
Manufacturer SPXS
Bus Type Starlink V2M
Phase Status In Orbit
Owner/State SPXS/US

Most Searched